Dades meteomassalio
Diari Summary for Juny 22, 2017 Units:  Metric    English   Both
« Previous Day
Next Day »
Diari Semanal Mensual Anual Personalitzat
  Maxima: Minima: Mijana:
Temperatura: 37.9 °C 18.4 °C 29 °C
Rosada: 17.1 °C 12.3 °C 14.3 °C
Humitat: 73 % 22 % 44 %
Velocitat del vent: 22.5 km/h 0.0 km/h 5.2 km/h
Racha vent: 22.5 km/h - -
Vent:- - ESE
Pressio: 1016.5 hPa 1013.8 hPa -
Pluja: 0.0 mm    
Historical Graphs
 
 
Tabular Data for Juny 22, 2017
Time Temperature Dew Point Pressure Wind Wind Speed Wind Gust Humidity Rainfall Rate (Hourly) solar Conditions
00:03 26.4 °C 14.8 °C 1014.8 hPa Calm     49 % 0.0 mm 0.0 W/m2 CLR
00:08 26.1 °C 14.6 °C 1014.8 hPa Calm     49 % 0.0 mm 0.0 W/m2 CLR
00:13 25.8 °C 14.6 °C 1014.8 hPa Calm     50 % 0.0 mm 0.0 W/m2 CLR
00:18 25.8 °C 14.3 °C 1014.8 hPa Calm     49 % 0.0 mm 0.0 W/m2 CLR
00:23 25.8 °C 14.6 °C 1014.8 hPa Calm     50 % 0.0 mm 0.0 W/m2 CLR
00:24 25.8 °C 14.6 °C 1014.8 hPa Calm     50 % 0.0 mm 0.0 W/m2 CLR
00:29 25.7 °C 14.8 °C 1015.1 hPa Calm     51 % 0.0 mm 0.0 W/m2 CLR
00:34 25.6 °C 14.7 °C 1015.1 hPa Calm     51 % 0.0 mm 0.0 W/m2 CLR
00:39 25.3 °C 14.4 °C 1015.1 hPa Calm     51 % 0.0 mm 0.0 W/m2 CLR
00:44 25.1 °C 14.6 °C 1015.1 hPa Calm     52 % 0.0 mm 0.0 W/m2 CLR
00:49 25.0 °C 14.4 °C 1015.1 hPa Calm     52 % 0.0 mm 0.0 W/m2 CLR
00:54 24.9 °C 14.4 °C 1015.1 hPa Calm     52 % 0.0 mm 0.0 W/m2 CLR
00:59 24.8 °C 14.3 °C 1015.1 hPa Calm     52 % 0.0 mm 0.0 W/m2 CLR
01:04 24.7 °C 14.5 °C 1015.1 hPa Calm     53 % 0.0 mm 0.0 W/m2 CLR
01:09 24.6 °C 14.3 °C 1015.1 hPa Calm     53 % 0.0 mm 0.0 W/m2 CLR
01:14 24.3 °C 14.4 °C 1015.1 hPa Calm     54 % 0.0 mm 0.0 W/m2 CLR
01:19 24.2 °C 14.6 °C 1015.1 hPa Calm     55 % 0.0 mm 0.0 W/m2 CLR
01:24 24.2 °C 14.6 °C 1015.1 hPa Calm     55 % 0.0 mm 0.0 W/m2 CLR
01:29 24.0 °C 14.4 °C 1015.1 hPa Calm     55 % 0.0 mm 0.0 W/m2 CLR
01:34 23.8 °C 14.5 °C 1015.1 hPa Calm     56 % 0.0 mm 0.0 W/m2 CLR
01:39 23.6 °C 14.6 °C 1015.1 hPa Calm     57 % 0.0 mm 0.0 W/m2 CLR
01:44 23.4 °C 14.7 °C 1015.1 hPa Calm     58 % 0.0 mm 0.0 W/m2 CLR
01:49 23.2 °C 14.5 °C 1015.1 hPa Calm     58 % 0.0 mm 0.0 W/m2 CLR
01:54 23.1 °C 14.6 °C 1015.1 hPa Calm     59 % 0.0 mm 0.0 W/m2 CLR
01:59 22.8 °C 14.4 °C 1015.1 hPa Calm     59 % 0.0 mm 0.0 W/m2 CLR
02:04 22.7 °C 14.6 °C 1015.1 hPa Calm     60 % 0.0 mm 0.0 W/m2 CLR
02:09 22.7 °C 14.8 °C 1015.1 hPa Calm     61 % 0.0 mm 0.0 W/m2 CLR
02:14 22.8 °C 14.6 °C 1015.1 hPa Calm     60 % 0.0 mm 0.0 W/m2 CLR
02:19 22.7 °C 14.6 °C 1015.1 hPa Calm     60 % 0.0 mm 0.0 W/m2 CLR
02:24 22.6 °C 14.4 °C 1015.1 hPa Calm     60 % 0.0 mm 0.0 W/m2 CLR
02:29 22.4 °C 14.2 °C 1015.1 hPa Calm     60 % 0.0 mm 0.0 W/m2 CLR
02:34 22.2 °C 14.3 °C 1015.1 hPa Calm     61 % 0.0 mm 0.0 W/m2 CLR
02:39 22.0 °C 14.6 °C 1015.1 hPa Calm     63 % 0.0 mm 0.0 W/m2 CLR
02:44 21.8 °C 14.7 °C 1015.1 hPa Calm     64 % 0.0 mm 0.0 W/m2 CLR
02:49 21.7 °C 14.6 °C 1015.1 hPa Calm     64 % 0.0 mm 0.0 W/m2 CLR
02:54 21.7 °C 14.3 °C 1015.1 hPa Calm     63 % 0.0 mm 0.0 W/m2 CLR
02:59 21.6 °C 14.2 °C 1015.1 hPa Calm     63 % 0.0 mm 0.0 W/m2 CLR
03:04 21.4 °C 14.1 °C 1015.1 hPa Calm     63 % 0.0 mm 0.0 W/m2 CLR
03:09 21.3 °C 14.4 °C 1015.1 hPa Calm     65 % 0.0 mm 0.0 W/m2 CLR
03:14 21.2 °C 14.3 °C 1015.1 hPa Calm     65 % 0.0 mm 0.0 W/m2 CLR
03:19 21.1 °C 14.2 °C 1015.1 hPa Calm     65 % 0.0 mm 0.0 W/m2 CLR
03:24 20.9 °C 14.1 °C 1014.8 hPa Calm     65 % 0.0 mm 0.0 W/m2 CLR
03:30 20.9 °C 14.1 °C 1014.8 hPa Calm     65 % 0.0 mm 0.0 W/m2 CLR
03:35 20.7 °C 14.2 °C 1014.8 hPa Calm     66 % 0.0 mm 0.0 W/m2 CLR
03:40 20.7 °C 14.3 °C 1014.8 hPa Calm     67 % 0.0 mm 0.0 W/m2 CLR
03:45 20.8 °C 14.4 °C 1014.8 hPa Calm     67 % 0.0 mm 0.0 W/m2 CLR
03:50 20.8 °C 14.4 °C 1015.1 hPa Calm     67 % 0.0 mm 0.0 W/m2 CLR
03:55 20.7 °C 14.2 °C 1015.1 hPa Calm     66 % 0.0 mm 0.0 W/m2 CLR
04:00 20.5 °C 13.9 °C 1015.1 hPa Calm     66 % 0.0 mm 0.0 W/m2 CLR
04:05 20.3 °C 14.0 °C 1015.1 hPa Calm     67 % 0.0 mm 0.0 W/m2 CLR
04:15 20.1 °C 14.0 °C 1014.8 hPa Calm     68 % 0.0 mm 0.0 W/m2 CLR
04:20 20.0 °C 13.9 °C 1014.8 hPa Calm     68 % 0.0 mm 0.0 W/m2 CLR
04:25 19.9 °C 13.8 °C 1015.1 hPa Calm     68 % 0.0 mm 0.0 W/m2 CLR
04:30 19.9 °C 14.1 °C 1015.1 hPa Calm     69 % 0.0 mm 0.0 W/m2 CLR
04:35 19.8 °C 14.0 °C 1014.8 hPa Calm     69 % 0.0 mm 0.0 W/m2 CLR
04:40 19.8 °C 14.0 °C 1014.8 hPa Calm     69 % 0.0 mm 0.0 W/m2 CLR
04:45 19.8 °C 14.0 °C 1015.1 hPa Calm     69 % 0.0 mm 0.0 W/m2 CLR
04:50 19.7 °C 13.9 °C 1015.1 hPa Calm     69 % 0.0 mm 0.0 W/m2 CLR
04:55 19.6 °C 13.8 °C 1015.1 hPa Calm     69 % 0.0 mm 0.0 W/m2 CLR
05:00 19.6 °C 13.9 °C 1015.1 hPa Calm     70 % 0.0 mm 0.0 W/m2 CLR
05:02 19.5 °C 13.9 °C 1015.1 hPa Calm     70 % 0.0 mm 0.0 W/m2 CLR
05:07 19.4 °C 13.8 °C 1015.1 hPa Calm     70 % 0.0 mm 0.0 W/m2 CLR
05:12 19.3 °C 13.7 °C 1015.1 hPa Calm     70 % 0.0 mm 0.0 W/m2 CLR
05:17 19.2 °C 13.6 °C 1015.1 hPa Calm     70 % 0.0 mm 0.0 W/m2 CLR
05:22 19.1 °C 13.5 °C 1015.1 hPa Calm     70 % 0.0 mm 0.0 W/m2 CLR
05:27 19.0 °C 13.6 °C 1015.1 hPa Calm     71 % 0.0 mm 0.0 W/m2 CLR
05:32 18.9 °C 13.5 °C 1015.1 hPa Calm     71 % 0.0 mm 0.0 W/m2 CLR
05:37 18.8 °C 13.7 °C 1015.5 hPa Calm     72 % 0.0 mm 0.0 W/m2 CLR
05:42 18.8 °C 13.4 °C 1015.5 hPa Calm     71 % 0.0 mm 0.0 W/m2 CLR
05:47 18.8 °C 13.6 °C 1015.5 hPa Calm     72 % 0.0 mm 0.0 W/m2 CLR
05:52 18.7 °C 13.5 °C 1015.5 hPa Calm     72 % 0.0 mm 0.0 W/m2 CLR
05:57 18.7 °C 13.5 °C 1015.5 hPa Calm     72 % 0.0 mm 0.0 W/m2 CLR
06:02 18.6 °C 13.6 °C 1015.5 hPa Calm     73 % 0.0 mm 0.0 W/m2 CLR
06:07 18.5 °C 13.6 °C 1015.5 hPa Calm     73 % 0.0 mm 0.0 W/m2 CLR
06:12 18.5 °C 13.6 °C 1015.5 hPa Calm     73 % 0.0 mm 0.0 W/m2 CLR
06:17 18.4 °C 13.5 °C 1015.5 hPa Calm     73 % 0.0 mm 0.0 W/m2 CLR
06:22 18.4 °C 13.5 °C 1015.8 hPa Calm     73 % 0.0 mm 0.0 W/m2 OVC
06:27 18.5 °C 13.6 °C 1015.5 hPa Calm     73 % 0.0 mm 0.0 W/m2 OVC
06:32 18.6 °C 13.4 °C 1015.5 hPa Calm     72 % 0.0 mm 7.0 W/m2 OVC
06:37 18.7 °C 13.5 °C 1015.5 hPa Calm     72 % 0.0 mm 9.0 W/m2 BKN
06:42 18.7 °C 13.3 °C 1015.5 hPa Calm     71 % 0.0 mm 12.0 W/m2 BKN
06:47 18.6 °C 13.4 °C 1015.5 hPa Calm     72 % 0.0 mm 18.0 W/m2 BKN
06:52 18.6 °C 13.4 °C 1015.8 hPa Calm     72 % 0.0 mm 23.0 W/m2 BKN
06:57 18.5 °C 13.3 °C 1015.8 hPa Calm     72 % 0.0 mm 26.0 W/m2 BKN
07:02 18.5 °C 13.3 °C 1015.8 hPa Calm     72 % 0.0 mm 32.0 W/m2 BKN
07:07 18.6 °C 13.4 °C 1015.8 hPa Calm     72 % 0.0 mm 39.0 W/m2 BKN
07:12 18.7 °C 13.5 °C 1015.8 hPa Calm     72 % 0.0 mm 47.0 W/m2 SCT
07:17 18.8 °C 13.4 °C 1015.8 hPa Calm     71 % 0.0 mm 56.0 W/m2 SCT
07:22 19.0 °C 13.6 °C 1015.8 hPa Calm     71 % 0.0 mm 65.0 W/m2 SCT
07:27 19.2 °C 13.6 °C 1015.8 hPa Calm     70 % 0.0 mm 74.0 W/m2 FEW
07:32 19.4 °C 13.8 °C 1015.8 hPa Calm     70 % 0.0 mm 76.0 W/m2 FEW
07:37 19.6 °C 13.8 °C 1015.8 hPa Calm     69 % 0.0 mm 98.0 W/m2 FEW
07:42 19.8 °C 14.0 °C 1015.8 hPa Calm     69 % 0.0 mm 109.0 W/m2 CLR
07:47 20.1 °C 14.0 °C 1015.8 hPa Calm     68 % 0.0 mm 100.0 W/m2 CLR
07:52 20.4 °C 14.1 °C 1016.1 hPa Calm     67 % 0.0 mm 102.0 W/m2 CLR
07:57 20.7 °C 14.2 °C 1015.8 hPa Calm     66 % 0.0 mm 123.0 W/m2 CLR
08:02 21.1 °C 14.2 °C 1016.1 hPa Calm     65 % 0.0 mm 132.0 W/m2 CLR
08:07 21.4 °C 14.1 °C 1016.1 hPa Calm     63 % 0.0 mm 183.0 W/m2 CLR
08:12 21.7 °C 14.4 °C 1016.1 hPa Calm     63 % 0.0 mm 200.0 W/m2 CLR
08:17 22.2 °C 14.8 °C 1016.1 hPa Calm     63 % 0.0 mm 214.0 W/m2 CLR
08:22 22.7 °C 15.3 °C 1016.1 hPa Calm     63 % 0.0 mm 229.0 W/m2 CLR
08:27 23.0 °C 15.3 °C 1016.1 hPa Calm     62 % 0.0 mm 241.0 W/m2 CLR
08:32 23.2 °C 15.2 °C 1016.1 hPa Calm     61 % 0.0 mm 255.0 W/m2 CLR
08:37 23.5 °C 15.0 °C 1016.1 hPa Calm     59 % 0.0 mm 269.0 W/m2 CLR
08:42 23.8 °C 15.1 °C 1016.1 hPa Calm     58 % 0.0 mm 287.0 W/m2 CLR
08:47 24.1 °C 15.3 °C 1016.1 hPa Calm     58 % 0.0 mm 299.0 W/m2 CLR
08:52 24.4 °C 14.8 °C 1016.1 hPa Calm     55 % 0.0 mm 311.0 W/m2 CLR
08:57 24.9 °C 14.7 °C 1016.1 hPa Calm     53 % 0.0 mm 327.0 W/m2 CLR
09:02 25.3 °C 15.1 °C 1016.5 hPa Calm     53 % 0.0 mm 345.0 W/m2 CLR
09:07 25.7 °C 15.4 °C 1016.5 hPa Calm     53 % 0.0 mm 359.0 W/m2 CLR
09:12 26.2 °C 15.2 °C 1016.5 hPa Calm     51 % 0.0 mm 374.0 W/m2 CLR
09:17 26.6 °C 15.3 °C 1016.5 hPa Calm     50 % 0.0 mm 387.0 W/m2 CLR
09:22 26.8 °C 15.2 °C 1016.5 hPa Calm     49 % 0.0 mm 404.0 W/m2 CLR
09:27 27.1 °C 15.1 °C 1016.5 hPa Calm     48 % 0.0 mm 420.0 W/m2 CLR
09:32 27.4 °C 15.4 °C 1016.5 hPa Calm     48 % 0.0 mm 434.0 W/m2 CLR
09:37 27.7 °C 15.4 °C 1016.5 hPa Calm     47 % 0.0 mm 448.0 W/m2 CLR
09:42 27.9 °C 15.6 °C 1016.5 hPa Calm     47 % 0.0 mm 462.0 W/m2 CLR
09:48 28.1 °C 15.3 °C 1016.5 hPa Calm     46 % 0.0 mm 482.0 W/m2 CLR
09:53 28.4 °C 15.7 °C 1016.5 hPa Calm     46 % 0.0 mm 497.0 W/m2 CLR
09:58 28.8 °C 15.7 °C 1016.5 hPa Calm     45 % 0.0 mm 512.0 W/m2 CLR
10:03 29.1 °C 15.9 °C 1016.5 hPa Calm     45 % 0.0 mm 527.0 W/m2 CLR
10:08 29.4 °C 15.9 °C 1016.5 hPa Calm     44 % 0.0 mm 543.0 W/m2 CLR
10:13 29.6 °C 15.7 °C 1016.5 hPa Calm     43 % 0.0 mm 557.0 W/m2 CLR
10:18 29.8 °C 16.3 °C 1016.1 hPa Calm     44 % 0.0 mm 570.0 W/m2 CLR
10:23 30.3 °C 16.3 °C 1016.1 hPa Calm     43 % 0.0 mm 584.0 W/m2 CLR
10:28 30.6 °C 16.2 °C 1016.1 hPa Calm     42 % 0.0 mm 599.0 W/m2 CLR
10:33 30.7 °C 16.3 °C 1016.1 hPa Calm     42 % 0.0 mm 610.0 W/m2 CLR
10:38 30.7 °C 16.3 °C 1016.1 hPa ENE 7.4 km/h 7.4 km/h 42 % 0.0 mm 624.0 W/m2 CLR
10:43 30.7 °C 16.3 °C 1016.1 hPa ENE 7.4 km/h 7.4 km/h 42 % 0.0 mm 636.0 W/m2 CLR
10:48 31.1 °C 16.7 °C 1016.1 hPa NE 7.4 km/h 7.4 km/h 42 % 0.0 mm 650.0 W/m2 CLR
10:53 31.4 °C 16.6 °C 1016.1 hPa ENE 11.1 km/h 11.1 km/h 41 % 0.0 mm 663.0 W/m2 CLR
10:58 31.6 °C 16.7 °C 1016.1 hPa ENE 5.6 km/h   41 % 0.0 mm 675.0 W/m2 CLR
11:03 31.6 °C 16.8 °C 1016.1 hPa ENE 5.6 km/h 5.6 km/h 41 % 0.0 mm 687.0 W/m2 CLR
11:08 31.9 °C 17.1 °C 1016.1 hPa NE 5.6 km/h 5.6 km/h 41 % 0.0 mm 700.0 W/m2 CLR
11:13 32.1 °C 16.4 °C 1016.1 hPa NE 3.2 km/h 3.2 km/h 39 % 0.0 mm 712.0 W/m2 CLR
11:18 32.2 °C 16.5 °C 1016.1 hPa ENE 5.6 km/h 5.6 km/h 39 % 0.0 mm 724.0 W/m2 CLR
11:23 32.4 °C 16.2 °C 1016.1 hPa NE 3.7 km/h 3.7 km/h 38 % 0.0 mm 729.0 W/m2 CLR
11:28 32.5 °C 16.3 °C 1016.1 hPa Calm     38 % 0.0 mm 745.0 W/m2 CLR
11:33 32.8 °C 15.8 °C 1016.1 hPa ENE 5.6 km/h 5.6 km/h 36 % 0.0 mm 758.0 W/m2 CLR
11:38 33.1 °C 15.6 °C 1016.1 hPa Calm     35 % 0.0 mm 766.0 W/m2 CLR
11:43 33.3 °C 15.7 °C 1016.1 hPa SSE 1.9 km/h 1.9 km/h 35 % 0.0 mm 775.0 W/m2 CLR
11:48 33.3 °C 15.8 °C 1016.1 hPa Calm     35 % 0.0 mm 780.0 W/m2 CLR
11:53 33.6 °C 16.1 °C 1016.1 hPa ENE 7.4 km/h 7.4 km/h 35 % 0.0 mm 793.0 W/m2 CLR
11:56 33.4 °C 15.8 °C 1016.1 hPa ESE 3.7 km/h   35 % 0.0 mm 800.0 W/m2 CLR
12:01 33.4 °C 16.3 °C 1016.1 hPa NNE 3.7 km/h 3.7 km/h 36 % 0.0 mm 809.0 W/m2 CLR
12:06 33.6 °C 16.5 °C 1016.1 hPa ENE 11.1 km/h 11.1 km/h 36 % 0.0 mm 814.0 W/m2 CLR
12:11 33.8 °C 15.8 °C 1016.1 hPa NE 1.9 km/h   34 % 0.0 mm 823.0 W/m2 CLR
12:16 34.0 °C 16.4 °C 1016.1 hPa ENE 3.7 km/h 3.7 km/h 35 % 0.0 mm 833.0 W/m2 CLR
12:21 34.3 °C 16.2 °C 1016.1 hPa ENE 7.4 km/h 7.4 km/h 34 % 0.0 mm 837.0 W/m2 CLR
12:26 34.3 °C 16.2 °C 1015.8 hPa Calm     34 % 0.0 mm 847.0 W/m2 CLR
12:31 34.3 °C 16.2 °C 1016.1 hPa ENE 8.0 km/h 8.0 km/h 34 % 0.0 mm 856.0 W/m2 CLR
12:36 34.4 °C 15.8 °C 1016.1 hPa Calm     33 % 0.0 mm 861.0 W/m2 CLR
12:41 34.6 °C 15.9 °C 1015.8 hPa ENE 3.7 km/h 3.7 km/h 33 % 0.0 mm 868.0 W/m2 CLR
12:46 34.4 °C 15.8 °C 1015.8 hPa East 4.8 km/h 4.8 km/h 33 % 0.0 mm 870.0 W/m2 CLR
12:48 34.4 °C 15.8 °C 1015.8 hPa ENE 7.4 km/h 7.4 km/h 33 % 0.0 mm 877.0 W/m2 CLR
12:53 34.4 °C 15.8 °C 1015.8 hPa NE 12.9 km/h 12.9 km/h 33 % 0.0 mm 881.0 W/m2 CLR
12:58 34.7 °C 15.6 °C 1015.8 hPa ENE 3.7 km/h   32 % 0.0 mm 886.0 W/m2 CLR
13:03 34.9 °C 15.8 °C 1015.8 hPa North 5.6 km/h 5.6 km/h 32 % 0.0 mm 888.0 W/m2 CLR
13:08 35.1 °C 15.9 °C 1015.8 hPa ENE 5.6 km/h 5.6 km/h 32 % 0.0 mm 895.0 W/m2 CLR
13:13 34.9 °C 15.7 °C 1015.5 hPa Calm     32 % 0.0 mm 902.0 W/m2 CLR
13:18 35.3 °C 16.1 °C 1015.5 hPa ENE 16.7 km/h 16.7 km/h 32 % 0.0 mm 893.0 W/m2 CLR
13:23 35.3 °C 16.1 °C 1015.5 hPa ENE 14.8 km/h 14.8 km/h 32 % 0.0 mm 907.0 W/m2 CLR
13:28 35.7 °C 15.4 °C 1015.5 hPa North 7.4 km/h 7.4 km/h 30 % 0.0 mm 909.0 W/m2 CLR
13:33 35.8 °C 15.0 °C 1015.5 hPa East 13.0 km/h 13.0 km/h 29 % 0.0 mm 911.0 W/m2 CLR
13:38 35.9 °C 15.6 °C 1015.5 hPa Calm   0.2 km/h 30 % 0.0 mm 912.0 W/m2 CLR
13:40 35.9 °C 15.7 °C 1015.5 hPa NNE 1.9 km/h 1.9 km/h 30 % 0.0 mm 912.0 W/m2 CLR
13:45 36.2 °C 14.8 °C 1015.5 hPa East 14.5 km/h 14.5 km/h 28 % 0.0 mm 916.0 W/m2 CLR
13:50 36.2 °C 14.8 °C 1015.1 hPa NE 1.9 km/h   28 % 0.0 mm 918.0 W/m2 CLR
13:55 36.2 °C 14.2 °C 1015.1 hPa East 16.7 km/h 16.7 km/h 27 % 0.0 mm 919.0 W/m2 CLR
14:00 36.1 °C 14.1 °C 1015.1 hPa SSE 14.8 km/h 14.8 km/h 27 % 0.0 mm 921.0 W/m2 CLR
14:05 36.0 °C 14.1 °C 1015.1 hPa East 1.9 km/h 1.9 km/h 27 % 0.0 mm 923.0 W/m2 CLR
14:10 36.2 °C 13.7 °C 1015.1 hPa ESE 18.5 km/h 18.5 km/h 26 % 0.0 mm 921.0 W/m2 CLR
14:15 36.2 °C 13.6 °C 1015.1 hPa East 8.0 km/h 8.0 km/h 26 % 0.0 mm 923.0 W/m2 CLR
14:20 36.4 °C 14.4 °C 1015.1 hPa SSE 5.6 km/h   27 % 0.0 mm 919.0 W/m2 CLR
14:25 36.9 °C 14.3 °C 1015.1 hPa East 14.5 km/h 14.5 km/h 26 % 0.0 mm 919.0 W/m2 CLR
14:30 36.6 °C 13.4 °C 1015.1 hPa SSE 11.1 km/h 11.1 km/h 25 % 0.0 mm 918.0 W/m2 CLR
14:35 36.4 °C 13.2 °C 1015.1 hPa ESE 18.5 km/h 18.5 km/h 25 % 0.0 mm 916.0 W/m2 CLR
14:40 36.3 °C 13.2 °C 1015.1 hPa ESE 18.5 km/h 18.5 km/h 25 % 0.0 mm 905.0 W/m2 CLR
14:45 36.4 °C 13.3 °C 1015.1 hPa SSE 12.9 km/h 12.9 km/h 25 % 0.0 mm 893.0 W/m2 CLR
14:50 36.4 °C 12.6 °C 1015.1 hPa East 11.1 km/h   24 % 0.0 mm 891.0 W/m2 CLR
14:55 36.4 °C 12.6 °C 1014.8 hPa ESE 13.0 km/h 13.0 km/h 24 % 0.0 mm 896.0 W/m2 CLR
15:00 36.3 °C 12.6 °C 1014.8 hPa East 12.9 km/h 12.9 km/h 24 % 0.0 mm 879.0 W/m2 CLR
15:05 36.6 °C 12.7 °C 1014.8 hPa East 14.8 km/h 14.8 km/h 24 % 0.0 mm 879.0 W/m2 CLR
15:10 36.6 °C 12.7 °C 1014.8 hPa SSE 13.0 km/h 13.0 km/h 24 % 0.0 mm 872.0 W/m2 CLR
15:15 36.6 °C 12.8 °C 1014.8 hPa East 11.3 km/h 11.3 km/h 24 % 0.0 mm 881.0 W/m2 CLR
15:20 36.7 °C 12.8 °C 1014.8 hPa ESE 6.4 km/h 6.4 km/h 24 % 0.0 mm 875.0 W/m2 CLR
15:25 36.8 °C 12.9 °C 1014.8 hPa South 9.3 km/h 9.3 km/h 24 % 0.0 mm 828.0 W/m2 CLR
15:30 36.8 °C 12.9 °C 1014.4 hPa ESE 11.3 km/h 13.2 km/h 24 % 0.0 mm 812.0 W/m2 CLR
15:35 36.7 °C 12.8 °C 1014.4 hPa Calm     24 % 0.0 mm 846.0 W/m2 CLR
15:36 36.8 °C 12.9 °C 1014.4 hPa Calm     24 % 0.0 mm 849.0 W/m2 CLR
15:41 37.1 °C 13.2 °C 1014.4 hPa East 16.7 km/h 16.7 km/h 24 % 0.0 mm 851.0 W/m2 CLR
15:46 37.2 °C 13.3 °C 1014.4 hPa South 11.1 km/h 11.1 km/h 24 % 0.0 mm 860.0 W/m2 CLR
15:51 37.2 °C 13.3 °C 1014.4 hPa ESE 9.3 km/h 9.3 km/h 24 % 0.0 mm 849.0 W/m2 CLR
15:56 37.2 °C 12.6 °C 1014.1 hPa NE 11.1 km/h 11.1 km/h 23 % 0.0 mm 809.0 W/m2 CLR
16:01 37.3 °C 12.7 °C 1014.1 hPa ENE 14.8 km/h 14.8 km/h 23 % 0.0 mm 826.0 W/m2 CLR
16:06 37.3 °C 12.7 °C 1014.1 hPa NE 13.0 km/h 13.0 km/h 23 % 0.0 mm 826.0 W/m2 CLR
16:11 37.6 °C 12.9 °C 1014.1 hPa NNE 9.3 km/h 9.3 km/h 23 % 0.0 mm 810.0 W/m2 CLR
16:16 37.6 °C 12.3 °C 1014.1 hPa North 11.1 km/h 11.1 km/h 22 % 0.0 mm 807.0 W/m2 CLR
16:21 37.7 °C 12.3 °C 1014.1 hPa ENE 9.3 km/h   22 % 0.0 mm 789.0 W/m2 CLR
16:26 37.8 °C 12.4 °C 1014.1 hPa East 3.7 km/h   22 % 0.0 mm 773.0 W/m2 CLR
16:31 37.9 °C 13.2 °C 1014.1 hPa ENE 5.6 km/h 5.6 km/h 23 % 0.0 mm 751.0 W/m2 CLR
16:36 37.6 °C 12.3 °C 1014.1 hPa ENE 13.0 km/h 13.0 km/h 22 % 0.0 mm 735.0 W/m2 CLR
16:41 37.7 °C 13.0 °C 1014.1 hPa East 5.6 km/h 5.6 km/h 23 % 0.0 mm 717.0 W/m2 CLR
16:47 37.3 °C 12.7 °C 1014.1 hPa East 13.0 km/h 13.0 km/h 23 % 0.0 mm 691.0 W/m2 CLR
16:52 37.2 °C 13.2 °C 1014.1 hPa ESE 6.4 km/h 6.4 km/h 24 % 0.0 mm 689.0 W/m2 CLR
16:57 37.3 °C 13.3 °C 1014.1 hPa ESE 14.8 km/h 14.8 km/h 24 % 0.0 mm 682.0 W/m2 CLR
17:02 37.2 °C 13.2 °C 1014.1 hPa ENE 14.5 km/h 14.5 km/h 24 % 0.0 mm 640.0 W/m2 CLR
17:07 37.1 °C 13.2 °C 1013.8 hPa Calm     24 % 0.0 mm 631.0 W/m2 CLR
17:12 37.1 °C 13.8 °C 1013.8 hPa ESE 9.3 km/h 9.3 km/h 25 % 0.0 mm 712.0 W/m2 CLR
17:17 37.0 °C 13.7 °C 1013.8 hPa East 14.8 km/h 14.8 km/h 25 % 0.0 mm 670.0 W/m2 CLR
17:22 36.8 °C 13.6 °C 1013.8 hPa SE 20.4 km/h 20.4 km/h 25 % 0.0 mm 561.0 W/m2 CLR
17:27 36.6 °C 14.0 °C 1013.8 hPa East 22.2 km/h 22.2 km/h 26 % 0.0 mm 504.0 W/m2 CLR
17:32 36.3 °C 14.9 °C 1013.8 hPa SE 18.5 km/h 18.5 km/h 28 % 0.0 mm 533.0 W/m2 CLR
17:37 36.3 °C 14.3 °C 1013.8 hPa ESE 14.5 km/h 14.5 km/h 27 % 0.0 mm 615.0 W/m2 CLR
17:42 36.5 °C 14.5 °C 1013.8 hPa ESE 14.8 km/h 14.8 km/h 27 % 0.0 mm 548.0 W/m2 CLR
17:47 36.5 °C 14.5 °C 1013.8 hPa ESE 18.5 km/h 18.5 km/h 27 % 0.0 mm 591.0 W/m2 CLR
17:52 36.6 °C 15.1 °C 1013.8 hPa East 13.0 km/h 13.0 km/h 28 % 0.0 mm 561.0 W/m2 CLR
17:57 36.5 °C 14.5 °C 1013.8 hPa ESE 18.5 km/h 18.5 km/h 27 % 0.0 mm 457.0 W/m2 CLR
18:02 36.3 °C 13.7 °C 1013.8 hPa ESE 20.4 km/h 20.4 km/h 26 % 0.0 mm 401.0 W/m2 CLR
18:07 36.1 °C 14.2 °C 1013.8 hPa SE 18.5 km/h 18.5 km/h 27 % 0.0 mm 394.0 W/m2 CLR
18:12 36.2 °C 14.8 °C 1013.8 hPa ESE 16.1 km/h 16.1 km/h 28 % 0.0 mm 439.0 W/m2 CLR
18:17 36.1 °C 15.3 °C 1013.8 hPa SE 16.7 km/h 16.7 km/h 29 % 0.0 mm 487.0 W/m2 CLR
18:22 36.0 °C 14.1 °C 1013.8 hPa ESE 17.7 km/h 17.7 km/h 27 % 0.0 mm 446.0 W/m2 CLR
18:27 35.9 °C 14.6 °C 1013.8 hPa ESE 18.5 km/h 18.5 km/h 28 % 0.0 mm 390.0 W/m2 CLR
18:32 35.8 °C 13.9 °C 1013.8 hPa ESE 18.5 km/h 18.5 km/h 27 % 0.0 mm 359.0 W/m2 CLR
18:37 35.8 °C 13.9 °C 1013.8 hPa ESE 16.7 km/h 16.7 km/h 27 % 0.0 mm 422.0 W/m2 CLR
18:42 35.8 °C 13.3 °C 1013.8 hPa ESE 18.5 km/h 18.5 km/h 26 % 0.0 mm 494.0 W/m2 CLR
18:47 36.0 °C 14.1 °C 1013.8 hPa SE 22.2 km/h 22.2 km/h 27 % 0.0 mm 464.0 W/m2 CLR
18:52 35.9 °C 13.9 °C 1013.8 hPa South 16.7 km/h 16.7 km/h 27 % 0.0 mm 385.0 W/m2 CLR
18:57 35.9 °C 13.9 °C 1013.8 hPa SE 18.5 km/h 18.5 km/h 27 % 0.0 mm 341.0 W/m2 CLR
19:02 35.7 °C 13.8 °C 1013.8 hPa SE 20.4 km/h 20.4 km/h 27 % 0.0 mm 308.0 W/m2 CLR
19:03 35.7 °C 13.8 °C 1013.8 hPa SSE 18.5 km/h 18.5 km/h 27 % 0.0 mm 292.0 W/m2 CLR
19:08 35.6 °C 13.7 °C 1013.8 hPa ESE 19.3 km/h 19.3 km/h 27 % 0.0 mm 308.0 W/m2 CLR
19:14 35.4 °C 14.2 °C 1013.8 hPa ESE 17.7 km/h 17.7 km/h 28 % 0.0 mm 281.0 W/m2 CLR
19:19 35.3 °C 14.0 °C 1013.8 hPa ESE 18.5 km/h 18.5 km/h 28 % 0.0 mm 225.0 W/m2 CLR
19:24 35.1 °C 14.4 °C 1014.1 hPa ESE 18.5 km/h 18.5 km/h 29 % 0.0 mm 216.0 W/m2 CLR
19:29 35.1 °C 14.3 °C 1013.8 hPa ESE 14.8 km/h 14.8 km/h 29 % 0.0 mm 185.0 W/m2 CLR
19:34 35.0 °C 14.3 °C 1014.1 hPa ESE 18.5 km/h 18.5 km/h 29 % 0.0 mm 156.0 W/m2 CLR
19:39 34.9 °C 14.3 °C 1013.8 hPa ESE 9.3 km/h 9.3 km/h 29 % 0.0 mm 141.0 W/m2 CLR
19:44 34.9 °C 14.2 °C 1014.1 hPa SE 13.0 km/h 13.0 km/h 29 % 0.0 mm 141.0 W/m2 CLR
19:49 34.8 °C 14.2 °C 1014.1 hPa SE 16.7 km/h 16.7 km/h 29 % 0.0 mm 128.0 W/m2 CLR
19:54 34.9 °C 14.2 °C 1014.1 hPa South 22.5 km/h 22.5 km/h 29 % 0.0 mm 134.0 W/m2 CLR
19:59 34.6 °C 14.0 °C 1014.1 hPa South 20.4 km/h 20.4 km/h 29 % 0.0 mm 125.0 W/m2 CLR
20:04 34.4 °C 13.3 °C 1014.1 hPa South 18.5 km/h 18.5 km/h 28 % 0.0 mm 114.0 W/m2 CLR
20:09 34.4 °C 13.2 °C 1014.1 hPa South 18.5 km/h 18.5 km/h 28 % 0.0 mm 91.0 W/m2 CLR
20:14 34.2 °C 13.1 °C 1014.4 hPa South 16.7 km/h 16.7 km/h 28 % 0.0 mm 74.0 W/m2 CLR
20:19 34.0 °C 12.9 °C 1014.4 hPa SSE 19.3 km/h 19.3 km/h 28 % 0.0 mm 65.0 W/m2 FEW
20:24 33.9 °C 13.3 °C 1014.4 hPa South 14.8 km/h 14.8 km/h 29 % 0.0 mm 58.0 W/m2 FEW
20:29 33.8 °C 13.3 °C 1014.4 hPa SSE 17.7 km/h 17.7 km/h 29 % 0.0 mm 49.0 W/m2 SCT
20:34 33.6 °C 13.1 °C 1014.4 hPa South 13.0 km/h 13.0 km/h 29 % 0.0 mm 40.0 W/m2 SCT
20:39 33.4 °C 13.0 °C 1014.4 hPa SSE 7.4 km/h 7.4 km/h 29 % 0.0 mm 37.0 W/m2 BKN
20:44 33.3 °C 13.3 °C 1014.4 hPa South 14.8 km/h 14.8 km/h 30 % 0.0 mm 35.0 W/m2 BKN
20:50 33.2 °C 13.3 °C 1014.4 hPa SSE 9.3 km/h 9.3 km/h 30 % 0.0 mm 37.0 W/m2 BKN
20:55 33.0 °C 13.1 °C 1014.4 hPa SSE 7.4 km/h 7.4 km/h 30 % 0.0 mm 30.0 W/m2 BKN
21:00 32.9 °C 13.0 °C 1014.4 hPa South 13.0 km/h   30 % 0.0 mm 25.0 W/m2 BKN
21:05 32.7 °C 13.4 °C 1014.4 hPa SSE 11.1 km/h 11.1 km/h 31 % 0.0 mm 21.0 W/m2 BKN
21:10 32.6 °C 13.3 °C 1014.8 hPa SSE 9.7 km/h 9.7 km/h 31 % 0.0 mm 18.0 W/m2 BKN
21:15 32.5 °C 13.2 °C 1014.8 hPa Calm     31 % 0.0 mm 14.0 W/m2 BKN
21:20 32.3 °C 13.6 °C 1014.8 hPa SSE 7.4 km/h 7.4 km/h 32 % 0.0 mm 11.0 W/m2 BKN
21:30 32.1 °C 13.3 °C 1014.8 hPa SSE 5.6 km/h 6.8 km/h 32 % 0.0 mm 0.0 W/m2 OVC
21:35 31.9 °C 13.6 °C 1014.8 hPa South 5.6 km/h 5.6 km/h 33 % 0.0 mm 0.0 W/m2 OVC
21:40 31.8 °C 13.5 °C 1014.8 hPa South 5.6 km/h   33 % 0.0 mm 0.0 W/m2 OVC
21:45 31.7 °C 13.4 °C 1014.8 hPa Calm     33 % 0.0 mm 0.0 W/m2 OVC
21:50 31.5 °C 13.3 °C 1014.8 hPa Calm     33 % 0.0 mm 0.0 W/m2 CLR
21:55 31.3 °C 13.6 °C 1014.8 hPa Calm     34 % 0.0 mm 0.0 W/m2 CLR
22:00 31.2 °C 13.4 °C 1014.8 hPa Calm     34 % 0.0 mm 0.0 W/m2 CLR
22:05 31.0 °C 13.3 °C 1015.1 hPa Calm     34 % 0.0 mm 0.0 W/m2 CLR
22:10 30.8 °C 13.6 °C 1015.1 hPa Calm     35 % 0.0 mm 0.0 W/m2 CLR
22:15 30.7 °C 13.1 °C 1015.1 hPa Calm     34 % 0.0 mm 0.0 W/m2 CLR
22:20 30.6 °C 12.9 °C 1015.1 hPa Calm     34 % 0.0 mm 0.0 W/m2 CLR
22:25 30.4 °C 13.2 °C 1015.1 hPa Calm     35 % 0.0 mm 0.0 W/m2 CLR
22:30 30.3 °C 13.1 °C 1015.5 hPa Calm     35 % 0.0 mm 0.0 W/m2 CLR
22:35 30.2 °C 13.5 °C 1015.5 hPa Calm     36 % 0.0 mm 0.0 W/m2 CLR
22:40 29.9 °C 12.8 °C 1015.5 hPa Calm     35 % 0.0 mm 0.0 W/m2 CLR
22:45 29.8 °C 13.2 °C 1015.5 hPa Calm     36 % 0.0 mm 0.0 W/m2 CLR
22:50 29.7 °C 13.0 °C 1015.8 hPa Calm     36 % 0.0 mm 0.0 W/m2 CLR
22:55 29.4 °C 12.8 °C 1015.8 hPa Calm     36 % 0.0 mm 0.0 W/m2 CLR
23:00 29.3 °C 13.1 °C 1015.8 hPa Calm     37 % 0.0 mm 0.0 W/m2 CLR
23:05 29.1 °C 13.3 °C 1015.8 hPa Calm     38 % 0.0 mm 0.0 W/m2 CLR
23:10 28.8 °C 13.5 °C 1015.8 hPa Calm     39 % 0.0 mm 0.0 W/m2 CLR
23:15 28.6 °C 13.6 °C 1015.8 hPa Calm     40 % 0.0 mm 0.0 W/m2 CLR
23:20 28.3 °C 14.2 °C 1015.8 hPa Calm     42 % 0.0 mm 0.0 W/m2 CLR
23:30 27.8 °C 14.4 °C 1015.8 hPa Calm     44 % 0.0 mm 0.0 W/m2 CLR
23:35 27.6 °C 14.3 °C 1015.8 hPa Calm     44 % 0.0 mm 0.0 W/m2 CLR
23:40 27.5 °C 14.2 °C 1015.8 hPa Calm     44 % 0.0 mm 0.0 W/m2 CLR
23:45 27.4 °C 14.4 °C 1015.8 hPa Calm     45 % 0.0 mm 0.0 W/m2 CLR
23:50 27.3 °C 14.7 °C 1015.8 hPa Calm     46 % 0.0 mm 0.0 W/m2 CLR
23:55 27.0 °C 14.7 °C 1015.8 hPa Calm     47 % 0.0 mm 0.0 W/m2 CLR
Lo Temps de Massalio
Compliments of Weather Underground - 1.25 mb